Regional Weather Roundup
Issued by NWS

Home | Current Version | Previous Version | Text Only | Print | Product List | Glossary Off
Versions: 1 2 3 4 5 6 7 8 9 10 11 12 13 14 15 16 17 18 19 20 21 22 23 24 25 26 27 28 29 30 31 32 33 34 35 36 37 38 39 40 41 42 43 44 45 46 47 48 49 50

182
ASUS43 KMPX 201110
RWRMN
WEATHER ROUNDUP FOR MINNESOTA
NATIONAL WEATHER SERVICE TWIN CITIES/CHANHASSEN MN
500 AM CST MON FEB 20 2017


NOTE: "FAIR" INDICATES FEW OR NO CLOUDS BELOW 12,000 FEET WITH NO
SIGNIFICANT WEATHER AND/OR OBSTRUCTIONS TO VISIBILITY. N/A MEANS
CURRENT SKY AND/OR WEATHER CONDITIONS ARE NOT AVAILABLE.

MNZ060>063-068>070-201200-
   Twin Cities Metro

CITY           SKY/WX    TMP DP  RH WIND       PRES   REMARKS
TWIN CITIES    CLOUDY    51  43  74 S13       29.84S
ST PAUL        CLOUDY    48  42  80 SE9       29.86S
CRYSTAL        MOCLDY    66  42  41 SE12      29.82S
BLAINE         MOCLDY    52  43  71 SE12      29.83R
LAKEVILLE      MOCLDY    46  45  93 SE5       29.85R
EDEN PRAIRIE   MOCLDY    51  44  77 SE7       29.82R
SOUTH ST PAUL  MOCLDY    48  40  74 SE3       29.85S
LAKE ELMO      FAIR      52  43  71 SE9       29.87R
$$
MNZ001>005-007-008-013>017-022>024-027-028-201200-
   Northwest Minnesota

CITY           SKY/WX    TMP DP  RH WIND       PRES   REMARKS
BEMIDJI        CLOUDY    39  35  86 SE9       29.68F
HALLOCK        CLOUDY    36  36 100 SE8       29.59S
ROSEAU         PTCLDY    41  36  81 SE8       29.64S
WARROAD        MOCLDY    39  36  87 SE8       29.67R
THIEF RVR FALL LGT RAIN  42  40  92 SE12      29.63R
CROOKSTON      DRIZZLE   46  45  93 S18       29.60S
FOSSTON        RAIN      43  39  87 SW10      29.69R
DETROIT LAKES  HVY RAIN  45  45 100 SE7       29.68R
MOORHEAD       CLOUDY    50  46  87 S14       29.61F
PARK RAPIDS    MOCLDY    42  38  85 SE14      29.70F
MAHNOMEN       RAIN      49  47  92 SE15G23   29.65R
$$
MNZ006-009>011-018-025>026-201200-
   North Central Minnesota

CITY           SKY/WX    TMP DP  RH WIND       PRES   REMARKS
BAUDETTE       CLOUDY    40  32  73 SE10      29.68R
FLAG ISLAND    PTCLDY    39  32  75 SE12      29.67R
INTL FALLS     CLOUDY    45  33  63 SE13G20   29.75R
WASKISH        MOCLDY    45  37  76 SE10G16   29.69F
BIG FORK       LGT RAIN  43  36  75 SE12      29.75F
LONGVILLE      CLOUDY    41  36  81 SE8       29.75F
GRAND RAPIDS   LGT RAIN  40  36  86 SE13      29.80F
CRANE LAKE     CLOUDY    43  32  65 SE7       29.84R
ORR            CLOUDY    45  30  57 SE12G18   29.78R
COOK           CLOUDY    45  34  65 SE7       29.82S
WALKER         FAIR      43  38  81 CALM      29.73R
$$
MNZ012-019>021-037-201200-
   Northeast Minnesota

CITY           SKY/WX    TMP DP  RH WIND       PRES   REMARKS
DULUTH         CLOUDY    40  32  73 SE16      29.88R
ELY            CLOUDY    39  30  70 SE14      29.88R
HIBBING        LGT RAIN  40  33  76 SE13      29.83R
EVELETH        CLOUDY    44  30  59 SE9       29.87R
DULUTH HARBOR  CLOUDY    36  34  93 NE18      29.93S
TWO HARBORS    CLOUDY    41  34  75 NE6       29.92R
SILVER BAY     CLOUDY    39  34  81 NE10      29.95R
GRAND MARAIS     N/A     39  31  72 NE14G21   30.03F
G MARAIS ARPRT CLOUDY    34  27  75 E12G18    29.99F WCI  25
$$
MNZ029>031-032-039>041-046>048-054>057-064-201200-
   West Central Minnesota

CITY           SKY/WX    TMP DP  RH WIND       PRES   REMARKS
FERGUS FALLS   CLOUDY    50  46  87 SE14      29.68F
WHEATON        CLOUDY    48  46  93 SE14      29.64S
MORRIS         CLOUDY    48  48 100 S17       29.67F
ALEXANDRIA     CLOUDY    47  45  93 SE9       29.70F
ELBOW LAKE     FAIR      48  47  95 E14       29.65F
WADENA         MOCLDY    43  41  93 E8        29.69F
GLENWOOD       CLOUDY    48  46  93 S12       29.71F
APPLETON       CLOUDY    54  48  82 SE9       29.69R
BENSON         CLOUDY    54  46  76 S14       29.73R
ORTONVILLE     CLOUDY    48  45  87 SE12      29.66R
WILLMAR        FAIR      52  48  87 SE12      29.75S
$$
MNZ033>034-036-042>043-049>051-058-059-201200-
   Central Minnesota

CITY           SKY/WX    TMP DP  RH WIND       PRES   REMARKS
ST CLOUD       MOCLDY    48  44  86 SE13      29.76F
SAUK CENTRE    FAIR      46  44  94 SE7       29.71F
PAYNESVILLE    CLOUDY    50  46  86 S12G18    29.75S
AITKIN         CLOUDY    43  34  70 E8        29.78F
PINE RIVER     CLOUDY    43  37  81 SE8       29.79S
BRAINERD       CLOUDY    44  37  76 SE9       29.77F
STAPLES        MOCLDY    45  41  87 SE6       29.72F
LONG PRAIRIE   FAIR      45  43  93 E5        29.74S
LITTLE FALLS   CLOUDY    45  39  81 SE7       29.76F
LITCHFIELD     CLOUDY    52  46  82 SE9       29.76F
BUFFALO        CLOUDY    51  44  75 SE8       29.81S
MAPLE LAKE     MOCLDY    48  45  87 SE8       29.80S
HUTCHINSON     CLOUDY    50  47  87 SE7       29.79S
$$
MNZ037-044-045-052-053-201200-
   East Central Minnesota

CITY           SKY/WX    TMP DP  RH WIND       PRES   REMARKS
PRINCETON      MOCLDY    52  45  76 SE9       29.80F
MORA           CLOUDY    45  37  76 E5        29.84S
CAMBRIDGE      MOCLDY    54  41  62 SE6       29.80S
RUSH CITY      CLOUDY    50  41  71 SE9       29.83S
MOOSE LAKE     CLOUDY    36  32  87 NE5       29.84F
HINCKLEY       FAIR      46  39  76 E5        29.84F
CLOQUET        CLOUDY    37  30  75 E9        29.87F
MCGREGOR       MOCLDY    39  34  81 E10       29.82F
$$
MNZ071>073-080-081-089-090-097-098-201200-
   Southwest Minnesota

CITY           SKY/WX    TMP DP  RH WIND       PRES   REMARKS
MONTEVIDEO     CLOUDY    52  48  87 S10G17    29.72R
GRANITE FALLS  CLOUDY    52  49  90 SE16      29.73S
CANBY          CLOUDY    57  52  82 SW16G30   29.66F
MARSHALL       MOCLDY    55  50  83 SE10      29.70S
REDWOOD FALLS  CLOUDY    50  45  83 SE17      29.75R
OLIVIA         CLOUDY    50  45  81 S13G20    29.74S
PIPESTONE      CLOUDY    54  48  82 S14G21    29.72S
WINDOM         CLOUDY    52  48  87 S13G18    29.76R
WORTHINGTON    CLOUDY    50  48  93 S16       29.77R
JACKSON        MOCLDY    50  45  81 S13G20    29.79R
TRACY          MOCLDY    51  49  92 S13       29.72S
SLAYTON        CLOUDY    53  51  92 S14       29.74S
$$
MNZ065>067-074>077-082>085-091>093-201200-
   South Central Minnesota

CITY           SKY/WX    TMP DP  RH WIND       PRES   REMARKS
MANKATO          N/A     50  45  83 SE15      29.81S
NEW ULM        MOCLDY    50  45  81 SE9       29.78F
ST JAMES       MOCLDY    48  45  87 SE12      29.80S
FAIRMONT       MOCLDY    49  45  86 S14       29.80S
GLENCOE        MOCLDY    53  49  86 SE10G16   29.79S
FARIBAULT      MOCLDY    54  46  76 SE10      29.84F
OWATONNA       MOCLDY    52  45  76 SE16      29.84F
WASECA         MOCLDY    50  45  81 SE15      29.84F
ALBERT LEA     MOCLDY    48  45  87 SE10G17   29.85S
$$
MNZ078>079-086>088-094>096-201200-
   Southeast Minnesota

CITY           SKY/WX    TMP DP  RH WIND       PRES   REMARKS
ROCHESTER      CLOUDY    47  44  90 S12       29.89S
RED WING       CLOUDY    52  43  71 SE13      29.89S
STANTON        MOCLDY    51  44  75 S8        29.84S
DODGE CENTER   PTCLDY    46  43  87 SE12      29.87F
WINONA         MOCLDY    46  39  76 CALM      29.94R
AUSTIN         MOCLDY    48  43  81 SE7       29.88S
PRESTON        PTCLDY    48  43  82 S5        29.91F
$$
ABBREVIATIONS USED IN REMARKS
   TC - TEMPERATURES IN CELSIUS
  WCI - WIND CHILL INDEX
   HX - HEAT INDEX
  VSB - VISIBILITY
$$




USA.gov is the U.S. government's official web portal to all federal, state and local government web resources and services.